OBJECT_NAME,OBJECT_ID,EPOCH,MEAN_MOTION,ECCENTRICITY,INCLINATION,RA_OF_ASC_NODE,ARG_OF_PERICENTER,MEAN_ANOMALY,EPHEMERIS_TYPE,CLASSIFICATION_TYPE,NORAD_CAT_ID,ELEMENT_SET_NO,REV_AT_EPOCH,BSTAR,MEAN_MOTION_DOT,MEAN_MOTION_DDOT TDRS 3,1988-091B,2026-09-12T01:41:59.485632,1.00275382,.00385294,12.5375,340.4204,352.3746,354.9541,0,U,19548,999,12625,0,-.31E-5,0 HST,1990-037B,2026-09-12T05:15:24.763104,15.31621652,.00017951,28.4730,205.3366,39.5104,320.5623,0,U,20580,999,80192,.14867041E-3,.4906E-4,0 TDRS 5,1991-054B,2026-09-11T13:21:12.161664,1.00279051,.00092685,14.0613,353.1301,252.0179,138.2405,0,U,21639,999,12858,0,.74E-6,0 TDRS 6,1993-003B,2026-09-11T17:06:19.139328,1.00276161,.0009562,14.1857,356.4041,198.6463,6.4408,0,U,22314,999,12327,0,-.306E-5,0 TDRS 7,1995-035B,2026-09-11T16:45:51.754752,1.00274271,.00113317,13.3018,347.5844,99.0369,244.8034,0,U,23613,999,11411,0,-.252E-5,0 ISS (ZARYA),1998-067A,2026-09-12T04:59:21.263136,15.49086570,.00049527,51.6305,229.4056,131.3152,228.8264,0,U,25544,999,58524,.97728592E-4,.4954E-4,0 TERRA,1999-068A,2026-09-12T06:12:30.582720,14.61158690,.00015531,97.9374,301.3181,353.3189,48.7649,0,U,25994,999,42232,.55820628E-4,.231E-5,0 TDRS 8,2000-034A,2026-09-11T20:27:38.505600,1.00271493,.00015732,12.8186,30.5680,100.7099,251.3448,0,U,26388,999,9604,0,-.206E-5,0 TIMED,2001-055B,2026-09-12T04:20:07.357344,14.95450248,.00019425,74.0665,59.8333,237.2040,122.8958,0,U,26998,999,34382,.80928842E-4,.855E-5,0 AQUA,2002-022A,2026-09-12T05:39:22.159296,14.62198310,.00016379,98.4385,226.3026,70.0506,346.6067,0,U,27424,999,29599,.10894996E-3,.499E-5,0 SORCE,2003-004A,2026-09-12T03:07:18.098112,15.04097885,.00184367,39.9900,125.4775,312.8964,47.0283,0,U,27651,999,28499,.14366909E-3,.1879E-4,0 AURA,2004-026A,2026-09-12T05:09:56.109600,14.61437156,.00015499,98.3508,212.4317,70.5005,289.6362,0,U,28376,999,17892,.11103048E-3,.501E-5,0 SWIFT,2004-047A,2026-09-12T05:58:08.562144,15.80115486,.00021388,20.5507,228.4892,171.2867,188.7618,0,U,28485,999,20059,.65200008E-3,.130959E-2,0 THEMIS A,2007-004A,2026-09-10T17:50:50.426016,0.87844081,.833622,9.2785,102.1929,216.1021,39.1197,0,U,30580,999,4203,0,-.38E-5,0 THEMIS D,2007-004D,2026-08-30T17:18:21.510720,0.87838990,.83102633,8.1500,76.2506,243.0983,30.3589,0,U,30797,999,4173,0,-.426E-5,0 THEMIS E,2007-004E,2026-09-11T10:18:39.231936,0.87839770,.84196712,7.0770,91.6612,232.4533,20.9912,0,U,30798,999,6668,0,-.462E-5,0 FGRST (GLAST),2008-029A,2026-09-12T07:16:54.312096,15.24338581,.00074639,25.5830,319.4079,274.8901,85.0785,0,U,33053,999,899,.83961174E-4,.2452E-4,0 TDRS 11,2013-004A,2026-09-12T06:14:03.397920,1.00267421,.00037282,3.6530,32.5282,44.1323,193.8138,0,U,39070,999,4756,0,.66E-6,0 TDRS 12,2014-004A,2026-09-12T06:51:59.759712,1.00270300,.00063525,4.0690,20.4192,215.7269,177.2344,0,U,39504,999,4515,0,-.282E-5,0 GPM-CORE,2014-009C,2026-09-12T08:11:03.480864,15.44888628,.00112119,64.9725,16.0842,259.8217,100.1659,0,U,39574,999,71127,.18189684E-3,.8362E-4,0 MMS 1,2015-011A,2026-09-12T08:00:01.999872,0.28342593,.82599138,72.9221,347.7877,169.3357,188.1776,0,U,40482,999,140,0,-.1792E-4,0 MMS 2,2015-011B,2026-09-12T08:00:01.999872,0.28342545,.82627502,72.9265,347.7866,169.3371,188.1566,0,U,40483,999,140,0,-.1793E-4,0 MMS 3,2015-011C,2026-09-12T08:00:01.999872,0.28342646,.82611981,72.9269,347.7986,169.3458,188.1309,0,U,40484,999,140,0,-.1793E-4,0 MMS 4,2015-011D,2026-09-12T08:00:01.999872,0.28342531,.82611902,72.9197,347.7826,169.3555,188.1263,0,U,40485,999,140,0,-.1793E-4,0 TDRS 13,2017-047A,2026-09-12T07:00:28.946880,1.00271604,.0013625,3.4826,4.8153,121.3831,318.8362,0,U,42915,999,3322,0,-.112E-5,0 NOAA 20 (JPSS-1),2017-073A,2026-09-12T06:18:46.389024,14.19525446,.00016029,98.7811,193.9650,52.9174,307.2148,0,U,43013,999,45682,.31246504E-4,.22E-6,0